Location: Saint-Usage
(47.1052°N, 5.2587°E)
Time: 16:15:18
(UTC+02:00)

ISS - Pass Details

Date: 22 September 2021
Orbit: 417 x 423 km, 51.6° (Epoch: 26 October)

Event Time Altitude Azimuth Distance (km) Brightness Sun altitude
Rises 20:51:34 0° 262° (W) 2,359 1.4 -13.5°
Reaches altitude 10° 20:53:42 10° 268° (W) 1,498 0.3 -13.8°
Maximum altitude 20:56:59 49° 344° (NNW) 551 -3.0 -14.4°
Enters shadow 20:59:11 19° 55° (NE) 1,089 -2.0 -14.7°
